,

(GMT )
Resolute

Weather History for CYRB - September, 2012

Change the Weather History Date:

Wednesday, September 12, 2012

  Actual Average Record
Temperature  
Mean Temperature 30 °F -  
Max Temperature 30 °F - - ()
Min Temperature 29 °F - - ()
Degree Days  
Heating Degree Days 36    
Moisture  
Dew Point 27 °F    
Average Humidity 86    
Maximum Humidity 93    
Minimum Humidity 80    
Precipitation  
Precipitation 0.00 in - - ()
Sea Level Pressure  
Sea Level Pressure 29.61 in    
Wind  
Wind Speed 16 mph ()    
Max Wind Speed 21 mph    
Max Gust Speed 18 mph    
Visibility 8.5 miles    
Events Snow    
T = Trace of Precipitation, MM = Missing Value Source: Averaged Metar Reports

Daily Weather History Graph

Daily Weather History Graph

Search for Another Location

Airport or City:

Trip Planner

Search our weather history database for the weather conditions in past years. The results will help you decide how hot, cold, wet, or windy it might be!

Date:

Astronomy

Sep. 12, 2012 Rise Set
Actual Time 6:04 AM CDT 8:23 PM CDT
Civil Twilight 4:33 AM CDT 9:52 PM CDT
Nautical Twilight 1:48 AM CDT 12:43 AM CDT
Astronomical Twilight Sun does not rise Sun does not rise
Moon No Moon Rise 8:20 PM CDT (9/12)
Length of Visible Light 17h 18m
Length of Day
14h 19m
Waning Crescent, 13% of the Moon is Illuminated
Sep 12
Waning Crescent
Sep 15
New
Sep 22
First Quarter
Sep 29
Full
Oct 8
Last Quarter

Hourly Weather History & Observations

Time (CDT) Temp. Windchill Dew Point Humidity Pressure Visibility Wind Dir Wind Speed Gust Speed Precip Events Conditions
12:00 AM 30.2 °F 18.5 °F 26.6 °F 86% 29.65 in 12.0 mi NW 17.3 mph - N/A Snow Light Snow
1:00 AM 30.2 °F 17.4 °F 24.8 °F 80% 29.66 in 15.0 mi NW 20.7 mph - N/A Snow Light Snow
2:00 AM 30.2 °F 20.2 °F 26.6 °F 86% 29.65 in 15.0 mi NW 12.7 mph 18.4 mph N/A Snow Light Snow
3:00 AM 30.2 °F 18.1 °F 26.6 °F 86% 29.65 in 15.0 mi NW 18.4 mph - N/A Snow Light Snow
4:00 AM 30.2 °F 21.3 °F 26.6 °F 86% 29.65 in 12.0 mi NW 10.4 mph - N/A Snow Light Snow
5:00 AM 30.2 °F 18.1 °F 26.6 °F 86% 29.65 in 15.0 mi NW 18.4 mph - N/A Snow Light Snow
6:00 AM 30.2 °F 17.8 °F 24.8 °F 80% 29.65 in 15.0 mi NW 19.6 mph - N/A Snow Light Snow
7:00 AM 29 °F - 26 °F 84% 29.64 in 15 mi NW 18.4 mph - - Snow Light Snow
7:00 AM 30.2 °F 18.1 °F 26.6 °F 86% 29.64 in 15.0 mi NW 18.4 mph - N/A Snow Light Snow
8:00 AM 30.2 °F 17.8 °F 26.6 °F 86% 29.63 in 15.0 mi NW 19.6 mph - N/A Snow Light Snow
9:00 AM 30.2 °F 18.5 °F 26.6 °F 86% 29.63 in 9.0 mi NNW 17.3 mph - N/A Snow Light Snow
10:00 AM 30.2 °F 18.5 °F 26.6 °F 86% 29.62 in 7.0 mi NW 17.3 mph - N/A Snow Light Snow
10:32 AM - - - N/A% - 9.0 mi NNW 17.3 mph - N/A   Unknown
11:00 AM 30.2 °F 18.5 °F 24.8 °F 80% 29.61 in 15.0 mi NW 17.3 mph - N/A Snow Light Snow
11:16 AM - - - N/A% - 8.0 mi NW 16.1 mph - N/A   Unknown
12:00 PM 30.2 °F 17.8 °F 26.6 °F 86% 29.61 in 4.0 mi NW 19.6 mph - N/A Snow Light Snow
12:40 PM - - - N/A% - 3.0 mi NW 18.4 mph - N/A Snow Light Snow Grains
1:00 PM 31 °F - 28 °F 81% 29.60 in 3 mi NW 16.1 mph - - Snow Snow Grains
1:00 PM 30.2 °F 18.1 °F 28.4 °F 93% 29.60 in 3.0 mi NW 18.4 mph - N/A Snow Light Snow Grains
1:23 PM - - - N/A% - 2.5 mi NW 15.0 mph - N/A   Unknown
2:00 PM 30.2 °F 18.5 °F 28.4 °F 93% 29.59 in 1.5 mi WNW 17.3 mph - N/A Snow Light Snow
2:27 PM - - - N/A% - 2.5 mi NW 16.1 mph - N/A   Unknown
3:00 PM 30.2 °F 18.5 °F 26.6 °F 86% 29.58 in 2.0 mi NW 17.3 mph - N/A Snow Light Snow
3:52 PM - - - N/A% - 4.0 mi NW 15.0 mph - N/A   Light Freezing Drizzle
4:00 PM 30.2 °F 18.1 °F 26.6 °F 86% 29.58 in 10.0 mi WNW 18.4 mph - N/A Snow Light Snow
4:30 PM - - - N/A% - 10.0 mi NW 15.0 mph - N/A   Unknown
5:00 PM 30.2 °F 18.9 °F 26.6 °F 86% 29.57 in 10.0 mi NW 16.1 mph - N/A Snow Light Snow Showers
5:34 PM - - - N/A% - 10.0 mi NW 16.1 mph - N/A   Unknown
6:00 PM 30.2 °F 18.9 °F 28.4 °F 93% 29.56 in 4.0 mi NW 16.1 mph - N/A Snow Light Snow Showers
6:52 PM - - - N/A% - 10.0 mi NW 16.1 mph - N/A   Unknown
7:00 PM 31 °F - 28 °F 81% 29.56 in 7 mi NW 16.1 mph - - Snow Light Snow
7:00 PM 30.2 °F 18.9 °F 28.4 °F 93% 29.56 in 8.0 mi NW 16.1 mph - N/A Snow Light Snow
7:33 PM - - - N/A% - 8.0 mi NW 18.4 mph - N/A   Overcast
8:00 PM 30.2 °F 18.1 °F 26.6 °F 86% 29.56 in 7.0 mi NW 18.4 mph - N/A Snow Light Snow
8:07 PM - - - N/A% - 3.0 mi NW 17.3 mph - N/A   Unknown
8:49 PM - - - N/A% - 4.0 mi NW 18.4 mph - N/A   Unknown
9:00 PM 30.2 °F 18.1 °F 26.6 °F 86% 29.55 in 4.0 mi NNW 18.4 mph - N/A Snow Light Snow Showers
10:00 PM 30.2 °F 19.8 °F 26.6 °F 86% 29.55 in 10.0 mi NNW 13.8 mph - N/A Snow Light Snow